Location: Arrodets-la-Barthe
(43.0306°N, 0.2829°E)
Time: 19:34:58
(UTC+00:00)

USA 229 DEB - Pass Details

Date: 24 October 2021
Orbit: 944 x 1268 km, 63.4° (Epoch: 25 November)

Event Time Altitude Azimuth Distance (km) Brightness Sun altitude
Rises 17:23:21 0° 180° (S) 3,605 6.6 -4.6°
Reaches altitude 10° 17:26:09 10° 170° (S) 2,683 5.9 -5.1°
Maximum altitude 17:31:27 30° 112° (ESE) 1,704 4.4 -6.1°
Drops below altitude 10° 17:37:01 10° 54° (NE) 2,833 5.4 -7.1°
Enters shadow 17:39:26 - 46° (NE) 3,634 6.0 -7.5°
